Terminal Aerodrome Forecast
Issued by NWS

Home | Current Version | Previous Version | Text Only | Print | Product List | Glossary On
Versions: 1 2 3 4 5 6 7 8 9 10 11 12 13 14 15 16 17 18 19 20 21
000
FTUS43 KDDC 210100 AAA
TAFGCK
TAF AMD
KGCK 210105Z 2101/2124 16004KT P6SM -RA VCTS SCT045CB BKN090 BKN110
     FM210300 14009KT P6SM BKN150
     FM211500 01015G22KT P6SM SCT250=

USA.gov is the U.S. government's official web portal to all federal, state and local government web resources and services.